Home > Time Zones > World Clock > Weather > Japan > Kyoto > Past weeks

Flag for Japan Weather past 2 weeks in Kyoto, Japan

Now
83 °F

Warm.


Feels Like: 91 °F
Forecast: 69 / 88 °F
Wind: 3 mph from Northwest

Location: Osaka

Current Time: Jul 27, 2014 at 4:39:45 AM

Latest Report: Jul 27, 2014 at 4:00 AM


Visibility: N/A

Pressure: 29.80 "Hg

Humidity: 77%

Dew point: 75 °F

Location of KyotoLocation

Historic Weather in Kyoto — Graph

°F

Kyoto temperature yesterday

Maximum temperature yesterday: 94 °F (at 1:00 PM)
Minimum temperature yesterday: 85 °F (at 4:00 AM)
Average temperature yesterday: 88 °F

Past Weeks' High & Low Weather Summary

 TemperatureHumidityPressure
High98 °F (Jul 25, 2:00 PM)96% (Jul 14, 5:00 AM)29.94 "Hg (Jul 14, 5:00 AM)
Low73 °F (Jul 21, 5:00 AM)36% (Jul 12, 1:00 PM)29.59 "Hg (Jul 13, 3:00 PM)
Average84 °F68%29.83 "Hg
* Reported Jul 12 3:00 AM — Jul 27 3:00 AM, Kyoto, Weather by CustomWeather, © 2014

Note: Actual official high and low records may vary slightly from our data, if they occured in-between our weather recording intervals... More about our weather records

Advertising

Kyoto weather history for previous 24 hours

 ConditionsComfort  
Time TempWeatherWind HumidityBarometerVisibility
3:00 AM
Jul 27
83 °FPassing clouds.3 mph78%29.81 "Hg9 mi
2:00 AM84 °FWarm.5 mph75%29.81 "HgN/A
1:00 AM84 °FWarm.7 mph73%29.82 "HgN/A
12:00 AM84 °FWarm.8 mph74%29.83 "HgN/A
11:00 PM
Jul 26
85 °FWarm.7 mph75%29.84 "HgN/A
10:00 PM86 °FWarm.7 mph74%29.85 "HgN/A
9:00 PM85 °FClear.9 mph78%29.86 "Hg9 mi
8:00 PM86 °FWarm.7 mph74%29.85 "HgN/A
7:00 PM88 °FWarm.12 mph68%29.83 "HgN/A
6:00 PM89 °FPassing clouds.12 mph63%29.82 "Hg9 mi
5:00 PM90 °FHot.14 mph59%29.82 "HgN/A
4:00 PM91 °FHot.9 mph58%29.83 "HgN/A
3:00 PM93 °FPassing clouds.12 mph52%29.84 "Hg16 mi
2:00 PM93 °FExtremely hot.13 mph51%29.85 "HgN/A
1:00 PM94 °FExtremely hot.9 mph48%29.86 "HgN/A
12:00 PM92 °FPassing clouds.12 mph52%29.88 "Hg12 mi
11:00 AM93 °FExtremely hot.9 mph54%29.89 "HgN/A
10:00 AM90 °FHot.8 mph59%29.90 "HgN/A
9:00 AM90 °FPassing clouds.8 mph62%29.90 "Hg16 mi
8:00 AM90 °FHot.3 mph62%29.90 "HgN/A
7:00 AM88 °FWarm.2 mph62%29.89 "HgN/A
6:00 AM86 °FSunny.2 mph69%29.87 "Hg16 mi
5:00 AM85 °FWarm.2 mph71%29.87 "HgN/A
4:00 AM85 °FWarm.1 mph73%29.87 "HgN/A
Weather by CustomWeather, © 2014

See weather overviewHow to use our weather pages